Location: Unspecified
(0.0000°N, 0.0000°E)
Time: 20:41:02
(UTC+00:00)

Transit 4A - Visible Passes

Search period start: 17 May 2026 00:00
Search period end: 27 May 2026 00:00
Orbit: 861 x 980 km, 66.8° (Epoch: 17 May)

Date Brightness Start Highest point End Pass type
(mag) Time Alt. Az. Time Alt. Az. Time Alt. Az.
17 May 9.6 05:17:39 10° S 05:22:48 32° ESE 05:28:02 10° NE visible
17 May 8.7 18:14:26 10° NNW 18:20:33 56° WSW 18:26:31 10° S visible
18 May 8.7 05:25:45 10° S 05:31:28 54° ESE 05:37:19 10° NNE visible
18 May 9.7 18:23:43 10° NW 18:29:13 33° WSW 18:34:38 10° S visible
19 May 10.3 18:33:36 10° WNW 18:37:55 20° WSW 18:42:09 10° SSW visible
20 May 10.5 04:00:49 10° SE 04:02:48 12° ESE 04:04:48 10° E visible
20 May 10.8 18:45:19 10° W 18:46:37 11° WSW 18:47:54 10° WSW visible
21 May 10.0 04:07:11 10° SSE 04:11:30 21° ESE 04:15:54 10° ENE visible
22 May 9.2 04:14:50 10° S 04:20:11 36° ESE 04:25:38 10° NE visible
23 May 8.2 04:24:12 16° S 04:28:50 62° ESE 04:34:49 10° NNE visible
24 May 7.7 04:33:44 24° SSW 04:37:31 78° WNW 04:43:34 10° NNE visible
25 May 10.2 02:59:42 14° ESE 03:00:12 14° ESE 03:03:05 10° E visible
25 May 8.2 04:43:14 26° SW 04:46:12 45° WNW 04:51:58 10° N visible
26 May 9.6 03:09:08 24° ESE 03:09:08 24° ESE 03:13:38 10° ENE visible
26 May 8.8 04:52:39 21° WSW 04:54:54 27° WNW 04:59:55 10° NNW visible
